Regional Weather Roundup
Issued by NWS

Home | Current Version | Previous Version | Graphics & Text | Print | Product List | Glossary On
Versions: 1 2 3 4 5 6 7 8 9 10 11 12 13 14 15 16 17 18 19 20 21 22 23 24 25 26 27
000
ASUS45 KBOU 271307
RWRCO

WEATHER ROUNDUP FOR COLORADO
NATIONAL WEATHER SERVICE DENVER/BOULDER CO
700 AM MDT SAT AUG 27 2016

NOTE: "FAIR" INDICATES FEW OR NO CLOUDS BELOW 12000 FEET WITH NO
SIGNIFICANT WEATHER AND/OR OBSTRUCTIONS TO VISIBILITY.

COZ001>005-013-030-031-271400-
...NORTHWEST COLORADO...

CITY           SKY/WX    TMP DP  RH WIND       PRES   REMARKS
CRAIG          FAIR      42  38  85 CALM      30.24R
HAYDEN         FAIR      45  36  70 E8        30.25R
MEEKER         FAIR      41  39  93 E3        30.25R
MOUNT WERNER   NOT AVBL
STEAMBOAT SPGS FAIR      39  37  90 CALM      30.27R
WALDEN         FAIR      39  32  75 CALM      30.33R
$$

COZ006>008-011-271400-
...WEST CENTRAL VALLEYS...

CITY           SKY/WX    TMP DP  RH WIND       PRES   REMARKS
GRAND JUNCTION FAIR      54  47  77 E5        30.17R
MONTROSE       FAIR      50  45  83 W3        30.24R
EAGLE          FAIR      43  43 100 E3        30.31R
RIFLE          FAIR      48  48 100 E5        30.24R
DELTA          NOT AVBL
NUCLA          FAIR     N/A N/A N/A E7        30.25R
$$

COZ017>023-064>068-271400-
...SOUTHWEST COLORADO...

CITY           SKY/WX    TMP DP  RH WIND       PRES   REMARKS
DURANGO        MOCLDY    46  43  89 E5        30.25S
CORTEZ         CLOUDY    54  49  83 S6        30.21R THUNDER
PAGOSA SPRINGS FAIR      42  42  99 CALM      30.32R
TELLURIDE      FAIR      44  42  91 SE5       30.40R
WOLF CREEK PAS FAIR      36  34  93 SW9       30.55S
$$

COZ009-010-012-014-032>034-037-058>063-271400-
...CENTRAL COLORADO...

CITY           SKY/WX    TMP DP  RH WIND       PRES   REMARKS
ASPEN          FAIR      40  38  93 CALM      30.31R
BUENA VISTA    FAIR      41  37  83 CALM      30.32R
COPPER MTN     FAIR      41  32  70 W8        30.51R
BERTHOUD PASS  FAIR      32  21  64 NW22      30.51S WCI  19
COTTONWOOD PAS FAIR      50  32  50 W6        30.40R
GUNNISON       FAIR      39  36  87 CALM      30.38R
KREMMLING      FAIR      37  36  93 CALM      30.33R
LEADVILLE      FAIR      31  28  89 NE7       30.40R WCI  24
MONARCH PASS   FAIR      36  32  87 W24       30.60S
SALIDA         FAIR      45  37  71 NW6       30.37S
SUNLIGHT       FAIR      39  37  93 NE10G18   30.48R
WILKERSON PASS FAIR      37  28  70 SW7       30.49R
$$

COZ069>075-271400-
...SAN LUIS VALLEY/SANGRE DE CRISTO MOUNTAINS...

CITY           SKY/WX    TMP DP  RH WIND       PRES   REMARKS
ALAMOSA        FAIR      36  34  92 CALM      30.30S
LA VETA PASS   FAIR      43  37  81 S8        30.40F
SAGUACHE       NOT AVBL
$$

COZ035-036-038>040-271400-
...NORTHERN COLORADO FRONT RANGE...

CITY           SKY/WX    TMP DP  RH WIND       PRES   REMARKS
DENVER INTL AP FAIR      53  47  79 SW8       30.13R
DMNS CITY PARK   N/A     53  45  75 S3        30.13S
AURORA         PTCLDY    50  45  83 S7        30.15R
FRONT RANGE AP NOT AVBL
ERIE MUNI ARPT FAIR      47  44  88 CALM      30.12R
BOULDER MUN AP FAIR      50  45  81 CALM      30.12S
CENTENNIAL     FAIR      51  42  71 CALM      30.16R
BROOMFIELD     PTCLDY    52  41  66 W6        30.14S
FORT COLLINS   FAIR      48  46  93 N6        30.13R
LONGMONT       FAIR      49  45  84 CALM      30.14R
$$

COZ041-046-047-076>085-087-088-271400-
...PIKES PEAK/PALMER DIVIDE AND SOUTHERN FOOTHILLS...

CITY           SKY/WX    TMP DP  RH WIND       PRES   REMARKS
COLO. SPRINGS  FAIR      53  45  74 N6        30.19R
A. F. ACADEMY  FAIR      46  44  90 N8        30.19S
SCHRIEVER AFB  NOT AVBL
ELLICOTT       NOT AVBL
FALCON         FAIR      51  48  89 NW7       30.22S
FORT CARSON    FAIR      54  45  71 NW7       30.15R
LIMON          FAIR      45  44  97 N6        30.13R
MONUMENT HILL  FAIR      52  45  76 SW9       30.23S
TRINIDAD       FAIR      50  44  80 W10       30.17R
$$

COZ042>045-048>051-090-091-271400-
...NORTHEAST COLORADO...

CITY           SKY/WX    TMP DP  RH WIND       PRES   REMARKS
GREELEY ARPT   FAIR      46  45  93 NW6       30.12R
AKRON          FAIR      47  46  97 SW6       30.09S
BURLINGTON     FOG       54  53  97 SE7       30.09R VSB<1/4
WRAY           NOT AVBL
STERLING       FOG       50  50 100 CALM      30.08R VSB<1/4
HOLYOKE        CLOUDY    54  52  94 E5        30.10R FOG
FORT MORGAN    FAIR      47  46  95 CALM      30.11R
$$

COZ086-089-092>099-271400-
...SOUTHEAST COLORADO...

CITY           SKY/WX    TMP DP  RH WIND       PRES   REMARKS
PUEBLO         FAIR      55  47  74 NW3       30.10R
LA JUNTA       FAIR      55  52  89 W6        30.07S
LAMAR          FOG       50  50 100 S5        30.04R VSB<1/4
SPRINGFIELD      N/A     56  54  93 SW5       30.07S
$$




USA.gov is the U.S. government's official web portal to all federal, state and local government web resources and services.